Location: Augsburg
(48.3836°N, 10.8929°E)
Time: 23:53:38
(UTC+01:00)

ISS - Pass Details

Date: 06 December 2021
Orbit: 413 x 422 km, 51.6° (Epoch: 24 January)

Event Time Altitude Azimuth Distance (km) Brightness Sun altitude
Rises 17:52:30 0° 291° (WNW) 2,386 0.9 -14.3°
Reaches altitude 10° 17:54:40 10° 284° (WNW) 1,516 0.0 -14.6°
Maximum altitude 17:57:53 41° 213° (SSW) 632 -2.5 -15.1°
Drops below altitude 10° 18:01:05 10° 142° (SE) 1,502 -1.2 -15.6°
Enters shadow 18:01:13 - 141° (SE) 1,555 -1.1 -15.7°
